Location: Góry Miechowskie
(50.3599°N, 20.1803°E)
Time: 23:47:55
(UTC+00:00)

Cosmos 1869 - Pass Details

Date: 22 September 2024
Orbit: 484 x 518 km, 82.5° (Epoch: 06 October)

Event Time Altitude Azimuth Distance (km) Brightness Sun altitude
Exits shadow 00:55:38 12° 356° (N) 1,583 6.1 -30.9°
Drops below altitude 10° 00:55:59 10° 358° (N) 1,718 6.3 -30.9°
Sets 00:58:11 0° 5° (N) 2,601 7.5 -30.7°
